Back to catalog

STARLINK-34440

AliveCommunicationsVLEO
NORAD 64614·PAYLOAD·🇺🇸 United States

Launched Jun 25, 2025 from Cape Canaveral Space Force Station

Loading…

Next Passes (next 24 hours)

TLE

FreshSource: CelesTrak SupGP

Epoch: Sep 14, 2026, 15:22 UTC

1 64614C 25137W   26257.64076389  .00065243  00000+0  19264-2 0  2574
2 64614  53.1566 175.1131 0001232  80.8371 107.8604 15.34376960    14

Track STARLINK-34440 in real time with AllMySat

Download on the App Store